Preisvergleich
Suchen Sie bei den großen Preisvergleich Portalen gleichzeitig! 


Sitemap72

5.9.2026 2:05

In den Sitemaps finden Sie im Meta-Preisvergleich häufig gefragte Suchworte sortiert nach der Anzahl der Anfragen.

Anfragen Suchwort Ergebnisse Datum Quellen
1icemix232026-08-07 00:07:0127
1samsung 990 pro 2 tb m.2-2280 pcie 4.0 x4 nvme solid state drive142026-08-07 00:07:0129
1asrock rx 9070 xt steel legend1072026-08-07 00:07:0126
1waschtischarmatur athen292026-08-07 00:07:0129
1waschtischarmatur eisl weiß412026-08-07 00:07:0128
1shimano cn-hg701 11-fach kette mit quick-link152026-08-07 00:07:0128
1colamy atlas232026-08-07 00:07:0126
1coqun os visufarma422026-08-07 00:07:0128
1libernovo maxis232026-08-07 00:07:0126
1shimano cn-hg901 11-fach 138302026-08-07 00:07:0129
1tights herren xxl4322026-08-07 00:07:0128
1tights kurz herren xxl652026-08-07 00:07:0126
1neoxx active pro perfect212026-08-07 00:07:0126
1miracold kältespray82026-08-07 00:07:0127
1mini xxl esel122026-08-07 00:07:0128
1ticova ergonomic82026-08-07 00:07:0127
1vaude escape light rad jacke112026-08-07 00:07:0129
1tempurpedic312026-08-07 00:07:0123
1colamy ergonomic282026-08-07 00:07:0129
1vihado vitamin d3 k2 tropfen142026-08-07 00:07:0129
1samsung galaxy 2 fold 8 ultra ohne vertrag102026-08-07 00:07:0128
1avtrek schrittzähler722026-08-07 00:07:0129
1bremsen entlüftungsgerät cclife192026-08-07 00:07:0129
1growatt thor 11252026-08-07 00:07:0129
1mini rolladen motor 20nm82026-08-07 00:07:0128
1cube luftfedergabel122026-08-07 00:07:0127
14000896042838172026-08-07 00:07:0125
1blizzard rustler 174112026-08-07 00:07:0126
1pacsafe go sling pack552026-08-07 00:07:0127
1lego 70917 neu ovp82026-08-07 00:07:0129
1lego 70916 neu ovp122026-08-07 00:07:0127
1adidas superstar babyblau142026-08-07 00:07:0128
1bikini set 42 d1872026-08-07 00:07:0128
1bikini set 42 d neu552026-08-07 00:07:0129
1laptop mit windows 11 und office paket242026-08-07 00:07:0129
1lego 70911 neu ovp142026-08-07 00:07:0129
1runpotec 50m1082026-08-07 00:07:0128
1starthilfe kabel überspannungsschutz1252026-08-07 00:07:0129
1lego 40806 neu ovp922026-08-07 00:07:0129
1sänger espressotassen set rio creme 12112026-08-07 00:07:0128
1renegade evo gtx lo w2372026-08-07 00:07:0129
1hoka speedgoat 7 47 1 3322026-08-07 00:07:0128
1schwalbe rocket ron 29 2,251232026-08-07 00:07:0129
1samsung galaxy tab a11 8gb 128gb1082026-08-07 00:07:0127
1samsung galaxy tab a11 8gb 11 zoll382026-08-07 00:07:0128
1gz3779382026-08-07 00:07:0128
1espressotassen set key west152026-08-07 00:07:0129
1schwalbe racing ralph 29 2.35842026-08-08 00:07:0128
1lego 910001 neu ovp152026-08-07 00:07:0128
1seltmann weiden espressotasse untertasse sento home 6 set242026-08-07 00:07:0127
1uvc led 6212026-08-07 00:07:0139
1einhell tp-hd 18 28 li bl272026-08-08 00:07:0129
1sänger key west802026-08-07 00:07:0129
10w30 motoröl8772026-08-07 00:07:0129
10w30 motoröl shell2962026-08-07 00:07:0128
1heckenschere gc-hh 5056272026-08-07 00:07:0125
1schwalbe racing ray 29 2,251412026-08-07 00:07:0127
1kingston xs2000 2tb, usb 3.2 gen 2 x2102026-08-07 00:07:0126
1kite optics sp 56112026-08-07 00:07:0125
1svbony sv406p 80 ed102026-08-07 00:07:0125
1gq43qn70hau82026-08-07 00:07:0126
1aomei backupper lifetime 5 pc92026-08-07 00:07:0129
1aomei backupper 5 pc lifetime92026-08-07 00:07:0129
1a4513240304232026-08-07 00:07:0128
1truma 70121-01112026-08-07 00:07:0129
1continental cross king 29x2.2 protection122026-08-07 00:07:0127
1kaminkappe kbs 2132026-08-07 00:07:0128
1teekanne fenchel-anis-kümmel472026-08-07 00:07:0128
1dreo turmventilator weiß122026-08-07 00:07:0128
1atlantis 12500 liter172026-08-07 00:07:0127
1camping gaz campingtoilette82026-08-08 00:07:0128
1xiaomi t17232026-08-08 00:07:0129
1wharfedale surround342026-08-08 00:07:0129
1wharfedale real142026-08-08 00:07:0128
1hp 950xl 951xl multipack original tintenpatronen182026-08-08 00:07:0129
1toner kyocera ecosys pa2101cwx2662026-08-08 00:07:0128
1tcl 115c7k212026-08-08 00:07:0127
1kyocera tk-5480c1302026-08-08 00:07:0129
1wooask a9222026-08-08 00:07:0128
1dewalt dcmbl562n822026-08-08 00:07:0129
1desloratadin aristo1422026-08-08 00:07:0128
1desloratadin heumann1572026-08-08 00:07:0127
1desloratadin 202762026-08-08 00:07:0127
1desloratadin stada1182026-08-08 00:07:0126
1motorola edge 70 512 ohne vertrag622026-08-08 00:07:0129
1switch it metall1252026-08-08 00:07:0128
1shad innentasche x0ib47 für terra82026-08-08 00:07:0129
1telesin 360 dji osmo action 4892026-08-08 00:07:0128
1one piece kartenspiel2542026-08-08 00:07:0128
1ap-238522026-08-08 00:07:0126
1visaton frs 51032026-08-08 00:07:0127
1samsonite proxis spinner 75312026-08-08 00:07:0129
1hydro-force koracle122026-08-08 00:07:0128
1mspa denver1012026-08-08 00:07:0129
1frs 5 xwp202026-08-08 00:07:0129
1tinte 102 multipack2292026-08-08 00:07:0128
1ryda grillplatten82026-08-08 00:07:0127
1cane corso beagle142026-08-08 00:07:0128
1cascara sagrada1562026-08-08 00:07:0127
1poco m7 256702026-08-08 00:07:0127
1dunoon lomond dazzle spots82026-08-08 00:07:0127
1the north face verto approach 44212026-08-08 00:07:0129
1manual walking pad102026-08-08 00:07:0127
1office walker262026-08-08 00:07:0129
1adidas fussballtrikot 20262702026-08-09 00:07:0128
1mascot 90c585102026-08-08 00:07:0128
1trelock rs 430 az zr 355 rahmenschloss set142026-08-08 00:07:0125
152-b1600s192026-08-08 00:07:0128
1roland transportanhänger big boy102026-08-08 00:07:0125
1ryda 2z gp142026-08-08 00:07:0128
1mum58310102026-08-08 00:07:0128
1liqui moly vollsynthetisches getriebeöl gl5 sae 75w-90 1 l792026-08-08 00:07:0129
1garmont dragontail 44742026-08-08 00:07:0126
1fleischerkiste e23872026-08-08 00:07:0129
1latzhose c604532026-08-08 00:07:0129
1costway mini wäschetrockner182026-08-08 00:07:0128
1klarstein jet set wäschetrockner, 1020102026-08-08 00:07:0127
1puma 44 speedcat rot422026-08-08 00:07:0128
1schlag e torx lang242026-08-08 00:07:0127
149b2u6903ch 00172026-08-08 00:07:0127
1perioden unterwäsche6522026-08-08 00:07:0129
1marstek b2500-d 2240wh982026-08-08 00:07:0127
1tecnica spark lt992026-08-08 00:07:0128
1dometic ac 537212026-08-08 00:07:0128
1switchbot ventilator272026-08-08 00:07:0128
1böker plus sigurd 42122026-08-08 00:07:0129
1hazet 5108b-3ct352026-08-08 00:07:0125
1stack 100 25172026-08-08 00:07:0124
1stack100 25122026-08-08 00:07:0124
1kludi 428570578 bajonett142026-08-08 00:07:0129
1minitool partition wizard server152026-08-08 00:07:0129
1monocultivar taggiasca extra vergine152026-08-08 00:07:0126
1aomei partition assistant server292026-08-08 00:07:0128
1berg xxl10912026-08-08 00:07:0128
1riess ambiente runder esstisch iron craft202026-08-08 00:07:0128
1dewalt 18 volt akku-hochentaster132026-08-08 00:07:0128
1für de longhi wasserfilter dlsc002,1142026-08-08 00:07:0129
1sänger rio espresso282026-08-08 00:07:0128
1vileda twist mop baumwolle92026-08-08 00:07:0126
1meaco standventilator182026-08-08 00:07:0128
1birkenstock rio kids gr 33262026-08-08 00:07:0129
1bonderite manuvo82026-08-08 00:07:0127
1busch müller toplight line small rücklicht382026-08-08 00:07:0129
1audi 8j0945257a492026-08-08 00:07:0154
1dub185z akku-gebläse632026-08-08 00:07:0129
1apple ipad 11 11th generation wi-fi cellular 128 gb silber md7f4ty a132026-08-08 00:07:0126
1schneider 132503 slider rave xb kugelschreiber strichstärke xb,252026-08-08 00:07:0128
1reifen 3.00-4 260x853532026-08-08 00:07:0126
1delonghi en 640.w gran lattissima392026-08-08 00:07:0126
1nike vomero 18 herren us 13172026-08-08 00:07:0127
1saucony triumph 24 herren 47332026-08-08 00:07:0129
1saucony triumph 23 herren 47542026-08-08 00:07:0129
1miele waschmaschine wwa 120 wcs102026-08-08 00:07:0128
1asics nimbus 27 herren 47362026-08-08 00:07:0128
1asics nimbus 28 herren 471062026-08-08 00:07:0128
1al-ko hw 3600 easy242026-08-08 00:07:0126
1ducray kelual ds original anti-schuppen intensivpflege shampoo 100 ml92026-08-08 00:07:0126
1uohhboe bluetooth lautsprecher 30w292026-08-08 00:07:0129
1lenovo thinkpad x1 carbon g13 142642026-08-08 00:07:0128
1würth neutralsilikon a8 pro152026-08-08 00:07:0128
1sennheiser rs 175 rf wireless102026-08-08 00:07:0129
1peak design everyday sling 10l eclipse202026-08-08 00:07:0129
1srl ext nxr2192026-08-08 00:07:0129
1stabmixer multiquick 5 mq 50001 m202026-08-08 00:07:0128
1kolegen92026-08-08 00:07:0125
1np-bj1 sony372026-08-08 00:07:0129
1glycowohl protect magnesium 400mg92026-08-08 00:07:0125
1cube vorbau cps-e112026-08-08 00:07:0129
1oakcastle sb40202026-08-08 00:07:0128
1grohe euphoria cosmopolitan 27400000312026-08-08 00:07:0128
1cube vorbau 70 mm232026-08-08 00:07:0128
1royal canin gastro intestinal katze 2 kg832026-08-08 00:07:0128
1samsung s27 ultra242026-08-08 00:07:0128
1cardo single hd262026-08-08 00:07:0128
1xtorm 35w gan2232026-08-08 00:07:0126
1mini koax 10 m262026-08-08 00:07:0128
1latzhose c158672026-08-08 00:07:0129
1cerave schäumendes reinigungsgel 473942026-08-08 00:07:0128
1lc-4wbn 12mm schwarz auf weiß532026-08-08 00:07:0128
1cerave schäumendes reinigungsgel 1l242026-08-08 00:07:0126
1petromax px fire center fc1000 station92026-08-08 00:07:0129
1sennheiser rs120 w672026-08-08 00:07:0126
1sandisk max endurance 128452026-08-08 00:07:0126
1camry camping-waschmaschine142026-08-08 00:07:0126
1nike vomero herren 47,51522026-08-08 00:07:0128
1nike vomero 18 herren 47,5712026-08-08 00:07:0128
1busch jaeger 1786 24g92026-08-08 00:07:0128
1fujifilm x half2812026-08-08 00:07:0129
1cerave schäumendes reinigungsgel 56292026-08-08 00:07:0129
1sportstech ks270172026-08-08 00:07:0128
1travelite freizeitrucksack basics roll-up rucksack aus plane202026-08-08 00:07:0123
1sony mh410c502026-08-08 00:07:0124
1cerave hydrating cleanser 473402026-08-08 00:07:0126
1linoa gesicht1682026-08-08 00:07:0127
1original mikroschalter 5q0713128a492026-08-08 00:07:0128
1pvc lüftungsrohr 1501782026-08-08 00:07:0127
1kitchenaid cover abdeckung112026-08-09 00:07:0127
125kg sonnenblumenkerne, schwarz222026-08-08 00:07:0127
1micro sd leser auf c3152026-08-08 00:07:0128
1kältemittel-vakuumpumpen-set82026-08-08 00:07:0128
1mystic vale conclave162026-08-09 00:07:0129
1kältemittel set manometer2422026-08-08 00:07:0128
1braun aromaster classic kf 47 1 bk132026-08-08 00:07:0129
1anker nano powerbank 10.000mah512026-08-08 00:07:0126
1philips senseo maestro wassertank292026-08-09 00:07:0128
1milescraft drillmate172026-08-08 00:07:0127
1botslab g980h pro232026-08-08 00:07:0129
1ladungssicherungsstange822026-08-09 00:07:0125
1629040162026-08-08 00:07:0127
1r95h 85112026-08-08 00:07:0129
1victron mppt 100 30 bluetooth652026-08-08 00:07:0127
12 stufige vakuumpumpe2222026-08-08 00:07:0129
1vevor 2-stufige vakuumpumpe182026-08-08 00:07:0128
1vevor 2-stufig vakuumpumpe182026-08-08 00:07:0127
1avensis t27 t270162026-08-08 00:07:0129
1hisense 43e7s482026-08-08 00:07:0128
1lancom wlc upgrade722026-08-08 00:07:0128
anzahl 217 xml 217


Preisvergleich
Wichtige Information zu den Preisangaben: Alle Preise verstehen sich inklusive der gesetzlichen Mehrwertsteuer und gegebebenfalls zuzüglich Versandkosten. Zum Zeitpunkt des Kaufes ist der aktuell auf der Händlerseite angegebene Preis maßgeblich. Bitte beachten Sie, dass aus technischen Gründen zeitweise Abweichungen, des Preises, der Lieferbarkeit und der Versandkosten entstehen können.

Affiliate-Offenlegung: Wenn Sie auf dieser Website auf Links zu verschiedenen Händlern klicken und einen Kauf tätigen, kann dies dazu führen, dass diese Website eine Provision erhält. Zu den Partnerprogrammen und Partnerschaften gehört unter anderem das eBay Partner Network. Als Amazon-Partner verdienen wir an qualifizierten Verkäufen.

Diese Website verwendet Cookies und Dienste von Drittanbietern. Durch die Nutzung dieser Website erklären Sie sich damit einverstanden, dass wir Cookies verwenden und Daten an Drittanbieter weitergeben. Insbesondere geben Sie durch das Klicken auf externe Links Ihr Einverständnis, dass anonyme Affiliate-Tracking-Cookies verwendet werden.

Meta-Preisvergleich - Ihre intelligente Shopping-Plattform

Funktionen:
Preisvergleich - Produktvergleich - Shopbewertung - Gutscheine - Produktbilder

Themen:
Buch Preisvergleich - Musik Preisvergleich - Film Preisvergleich - Spiele Computerspiele - Medikamente - Ärzte - Optik und Kontaktlinsen - Krankenversicherung - Preisvergleich Reisen - Kreuzfahrt Preisvergleich - Flüge Preisvergleich - Mietwagen - Hotel Preisvergleich - Ferienhaus Mieten - Stromtarife - Versicherungen - Geldanlage - Finanzierung - Auto - Immobilien - Handy-Tarife - Internetzugang - Geschenke - Singlebörsen - KI-Chatbot

Erklärungen:
Preisvergleich Übersicht / Marktübersicht - Liste der Preisvergleich Quellen - Benutzerdefinierte Preisvergleich Quellen - Erklärungen zum Meta-Preisvergleich

Sitemaps:
1 - 2 - 3 - 4 - 5 - 6 - 7 - 8 - 9 - 10 - 11 - 12 - 13 - 14 - 15 - 16 - 17 - 18 - 19 - 20 - 21 - 22 - 23 - 24 - 25 - 26 - 27 - 28 - 29 - 30 - 31 - 32 - 33 - 34 - 35 - 36 - 37 - 38 - 39 - 40 - 41 - 42 - 43 - 44 - 45 - 46 - 47 - 48 - 49 - 50 - 51 - 52 - 53 - 54 - 55 - 56 - 57 - 58 - 59 - 60 - 61 - 62 - 63 - 64 - 65 - 66 - 67 - 68 - 69 - 70 - 71 - 72 - 73 - 74 - 75 - 76 - 77 - 78 - 79 - 80 - 81 - 82 - 83 - 84 - 85 - 86 - 87 - 88 - 89 - 90 - 91 - 92 - 93 - 94 - 95 - 96 - 97 - 98 - 99 - 100 -
Impressum / Datenschutzerklärung     Presse / Links / Logos    
Copyright © 2003-2026 MetaMind GmbH